[Iaude] MPEC V78: 2016 VU2 [a=0.99,e=0.55,i=27.0,H=21.8]

mpec at si.edu mpec at si.edu
Tue Nov 8 23:51:31 EST 2016


M.P.E.C. 2016-V78                                Issued 2016 Nov.  9, 04:47 UT
 
     The Minor Planet Electronic Circulars contain information on unusual
         minor planets and routine data on comets.  They are published
    on behalf of Division F of the International Astronomical Union by the
          Minor Planet Center, Smithsonian Astrophysical Observatory,
                          Cambridge, MA 02138, U.S.A.

             Prepared using the Tamkin Foundation Computer Network

                              MPC at CFA.HARVARD.EDU
            URL http://www.minorplanetcenter.net/    ISSN 1523-6714


                                   2016 VU2
 
Observations:
     K16V02U* C2016 11 06.31110 01 10 49.41 +39 20 35.9          20.2 VqEV078G96
     K16V02U  C2016 11 06.31542 01 10 48.87 +39 20 07.3          20.5 VqEV078G96
     K16V02U  C2016 11 06.31978 01 10 48.44 +39 19 40.0                qEV078G96
     K16V02U  C2016 11 06.32418 01 10 47.92 +39 19 10.4          20.7 VqEV078G96
     K16V02U  C2016 11 06.35651 01 10 44.28 +39 15 40.1          20.7 VqEV078G96
     K16V02U  C2016 11 06.35834 01 10 44.03 +39 15 27.1          20.4 VqEV078G96
     K16V02U  C2016 11 06.36206 01 10 43.58 +39 15 04.3          20.2 VqEV078G96
     K16V02U  C2016 11 07.12731 01 09 31.83 +37 53 49.0          21.1 VqEV078G96
     K16V02U  C2016 11 07.12882 01 09 31.70 +37 53 41.5          21.5 VqEV078G96
     K16V02U  C2016 11 07.17547 01 09 26.84 +37 48 48.8          21.3 RoEV078926
     K16V02U  C2016 11 07.17848 01 09 26.55 +37 48 28.8          20.5 RoEV078926
     K16V02U  C2016 11 07.18149 01 09 26.25 +37 48 10.6          20.8 RoEV078926
     K16V02U KC2016 11 07.18816701 09 24.81 +37 47 25.3          21.0 VuEV078H21
     K16V02U KC2016 11 07.19409401 09 24.20 +37 46 47.6          20.7 VuEV078H21
     K16V02U KC2016 11 07.20001801 09 23.57 +37 46 10.7          20.8 VuEV078H21
     K16V02U  C2016 11 08.24247 01 07 53.93 +35 59 01.6          20.5 RoEV078926
     K16V02U  C2016 11 08.24693 01 07 53.51 +35 58 35.3          21.3 RoEV078926
     K16V02U  C2016 11 08.25141 01 07 53.14 +35 58 08.6          21.0 RoEV078926
     K16V02U  C2016 11 09.10167401 06 49.86 +34 33 31.3          21.2 VtEV078H01
     K16V02U  C2016 11 09.10739301 06 49.39 +34 32 58.1          21.2 VtEV078H01
     K16V02U  C2016 11 09.11537301 06 48.74 +34 32 11.4          21.3 VtEV078H01
     K16V02U  C2016 11 09.12551901 06 47.92 +34 31 12.2          21.4 VtEV078H01
     K16V02U  C2016 11 09.15614 01 06 45.62 +34 28 14.3          21.2 VqEV078G96
     K16V02U  C2016 11 09.15740 01 06 45.44 +34 28 06.6          20.8 VqEV078G96
     K16V02U  C2016 11 09.15871 01 06 45.28 +34 28 00.2          21.2 VqEV078G96
     K16V02U  C2016 11 09.16004 01 06 45.28 +34 27 51.0          21.0 VqEV078G96
 
Observer details:
926 Tenagra II Observatory.  Observers M. Schwartz, P. R. Holvorcem.  Measurer
    M. Schwartz.  0.81-m f/7 Ritchey-Chretien + CCD.
G96 Mt. Lemmon Survey.  Observers R. A. Kowalski, R. G. Matheny.  Measurers
    E. J. Christensen, D. C. Fuls, A. R. Gibbs, A. D. Grauer, J. A. Johnson,
    R. A. Kowalski, S. M. Larson, G. J. Leonard, R. G. Matheny, R. L. Seaman,
    F. C. Shelly.  1.5-m reflector + 10K CCD.
H01 Magdalena Ridge Observatory, Socorro.  Observers W. H. Ryan, E. V. Ryan.
    Measurer W. H. Ryan.  2.4-m f/8.9 reflector + CCD.
H21 Astronomical Research Observatory, Westfield.  Observer R. Holmes.
    Measurers S. Foglia, L. Buzzi, T. Linder, R. Holmes.  0.61-m f/4.5
    astrograph + CCD.
 
Orbital elements:
2016 VU2                                                 Earth MOID = 0.2520 AU
Epoch 2016 July 31.0 TT = JDT 2457600.5                 MPC
M 355.37887              (2000.0)            P               Q
n   1.00232925     Peri.   18.64284     -0.30533569     +0.87588988
a   0.9888470      Node   235.29798     -0.92122696     -0.37102838
e   0.5497096      Incl.   27.02949     -0.24106223     +0.30847181
P   0.98           H   21.8           G   0.15           U   9
Residuals in seconds of arc
161106 G96  0.3+  0.1+    161107 926  0.2-  0.3+    161109 H01  0.1-  0.0
161106 G96  0.3-  0.4-    161107 926  0.0   0.9-    161109 H01  0.2-  0.1+
161106 G96  0.5+  0.7+    161107 926  0.2+  0.2-    161109 H01  0.3-  0.1-
161106 G96  0.2+  0.2-    161107 H21  0.4+  0.2-    161109 H01  0.2-  0.2-
161106 G96  0.1+  0.1+    161107 H21  0.5+  0.5-    161109 G96  0.9+  0.1+
161106 G96  0.5-  1.0-    161107 H21  0.2+  0.1-    161109 G96  0.0   0.3-
161106 G96  0.9-  0.5+    161108 926  0.3-  0.8-    161109 G96  0.7-  1.0+
161107 G96  0.1-  0.0     161108 926  0.4-  0.0     161109 G96  0.7+  0.5-
161107 G96  0.2+  1.9+    161108 926  0.1+  0.5+

Ephemeris:
2016 VU2                 a,e,i = 0.99, 0.55, 27                  q = 0.4453
Date    TT    R. A. (2000) Decl.     Delta      r     Elong.  Phase     V
2016 10 10    08 02 39.2 +78 14 36   0.3067  1.0622    93.5    69.8    21.8
...
2016 10 25    02 00 20.0 +63 53 50   0.2740  1.1835   128.2    41.3    21.0
...
2016 11 02    01 20 32.0 +47 32 30   0.2910  1.2401   144.2    27.9    20.8
...
2016 11 08    01 08 14.1 +36 23 41   0.3224  1.2789   149.4    23.2    21.0
2016 11 09    01 06 56.2 +34 43 37   0.3291  1.2851   149.6    23.0    21.0
2016 11 10    01 05 47.9 +33 07 10   0.3361  1.2912   149.5    22.9    21.1
...
2016 11 16    01 01 39.3 +24 45 03   0.3851  1.3260   146.1    24.6    21.5
...
2016 11 24    01 01 02.0 +16 39 59   0.4654  1.3679   137.7    29.0    22.1
...
2016 12 09    01 08 30.4 +08 05 45   0.6446  1.4332   121.8    35.8    23.1

A. U. Tomatic                (C) Copyright 2016 MPC           M.P.E.C. 2016-V78




More information about the Iaude mailing list